Weather History for KAEJ

Nearest airport to NA, NA.

See history from more local stations
Change the Weather History Date:

Monday, December 16, 2013

  Actual Average (KLXV) Record (KLXV)
Temperature  
Mean Temperature 32 °F -  
Max Temperature 46 °F 29 °F 43 °F (1991)
Min Temperature 19 °F 4 °F -14 °F (1987)
Degree Days  
Heating Degree Days 32 49  
Month to date heating degree days 766  
Since 1 July heating degree days 4171  
Cooling Degree Days 0 0  
Month to date cooling degree days 0  
Year to date cooling degree days 0  
Moisture  
Dew Point 14 °F    
Average Humidity 40    
Maximum Humidity 67    
Minimum Humidity 26    
Precipitation  
Precipitation 0.00 in 0.03 in 0.30 in (1977)
Month to date precipitation 0.40  
Year to date precipitation 12.10  
Sea Level Pressure  
Sea Level Pressure 30.31 in    
Wind  
Wind Speed 12 mph (NW)    
Max Wind Speed 29 mph    
Max Gust Speed 34 mph    
Visibility 10 miles    
Events      
T = Trace of Precipitation, MM = Missing Value Source: NWS Daily Summary

Daily Weather History Graph

Daily Weather History Graph

Search for Another Location

Airport or City:

Trip Planner

Search our weather history database for the weather conditions in past years. The results will help you decide how hot, cold, wet, or windy it might be!

Date:

Astronomy

Dec. 16, 2013 Rise Set
Actual Time 7:16 AM MST 4:44 PM MST
Civil Twilight 6:46 AM MST 5:14 PM MST
Nautical Twilight 6:13 AM MST 5:47 PM MST
Astronomical Twilight 5:40 AM MST 6:19 PM MST
Moon 4:36 PM MST (12/16) 6:27 AM MST (12/16)
Length of Visible Light 10h 27m
Length of Day
9h 27m
Full, 100% of the Moon is Illuminated
Dec 16
Full
Dec 17
Full
Dec 25
Last Quarter
Jan 1
New
Jan 7
First Quarter

Hourly Weather History & Observations

Time (MST) Temp. Windchill Dew Point Humidity Pressure Visibility Wind Dir Wind Speed Gust Speed Precip Events Conditions
12:15 AM 21.9 °F 14.5 °F 10.2 °F 61% 30.29 in 10.0 mi SSE 5.8 mph - N/A   Clear
12:35 AM 19.2 °F 12.5 °F 9.9 °F 67% 30.29 in 10.0 mi SE 4.6 mph - N/A   Clear
12:55 AM 21.9 °F 15.7 °F 10.8 °F 62% 30.28 in 10.0 mi South 4.6 mph - N/A   Clear
1:15 AM 21.2 °F 14.9 °F 10.6 °F 64% 30.28 in 10.0 mi South 4.6 mph - N/A   Clear
1:35 AM 23.7 °F 16.6 °F 11.5 °F 60% 30.28 in 10.0 mi SSE 5.8 mph - N/A   Clear
1:55 AM 23.7 °F 17.8 °F 11.5 °F 60% 30.28 in 10.0 mi SW 4.6 mph - N/A   Clear
2:15 AM 28.4 °F 17.0 °F 13.8 °F 54% 30.27 in 10.0 mi NW 15.0 mph 26.5 mph N/A   Clear
2:35 AM 28.8 °F 22.6 °F 12.7 °F 51% 30.26 in 10.0 mi WNW 5.8 mph - N/A   Clear
2:55 AM 34.0 °F 22.7 °F 13.8 °F 44% 30.26 in 10.0 mi NW 19.6 mph 31.1 mph N/A   Clear
3:15 AM 37.8 °F 30.2 °F 13.6 °F 37% 30.26 in 10.0 mi WNW 11.5 mph 32.2 mph N/A   Clear
3:35 AM 35.1 °F 23.3 °F 14.9 °F 44% 30.25 in 10.0 mi WNW 23.0 mph 28.8 mph N/A   Clear
3:55 AM 36.3 °F 26.1 °F 15.1 °F 42% 30.25 in 10.0 mi WNW 18.4 mph - N/A   Clear
4:15 AM 36.1 °F 26.9 °F 14.9 °F 42% 30.25 in 10.0 mi West 15.0 mph 20.7 mph N/A   Clear
4:35 AM 36.7 °F 26.3 °F 15.4 °F 42% 30.25 in 10.0 mi WNW 19.6 mph 27.6 mph N/A   Clear
4:55 AM 38.7 °F 32.9 °F 15.3 °F 39% 30.25 in 10.0 mi NW 8.1 mph 18.4 mph N/A   Clear
5:15 AM 36.3 °F 26.8 °F 16.7 °F 45% 30.25 in 10.0 mi NNW 16.1 mph 19.6 mph N/A   Clear
5:35 AM 36.1 °F 27.3 °F 16.3 °F 45% 30.26 in 10.0 mi NNW 13.8 mph 18.4 mph N/A   Clear
5:55 AM 35.1 °F 25.9 °F 15.8 °F 45% 30.26 in 10.0 mi NNW 13.8 mph - N/A   Clear
6:15 AM 34.3 °F 25.5 °F 17.1 °F 49% 30.26 in 10.0 mi NNW 12.7 mph - N/A   Clear
6:35 AM 35.4 °F 26.0 °F 16.3 °F 46% 30.28 in 10.0 mi NW 15.0 mph 26.5 mph N/A   Clear
6:55 AM 35.2 °F 27.1 °F 16.5 °F 47% 30.28 in 10.0 mi NW 11.5 mph 21.9 mph N/A   Clear
7:15 AM 34.7 °F 30.6 °F 16.7 °F 48% 30.29 in 10.0 mi NW 4.6 mph - N/A   Clear
7:35 AM 36.1 °F 28.2 °F 15.3 °F 43% 30.30 in 10.0 mi NNW 11.5 mph 19.6 mph N/A   Clear
7:55 AM 36.1 °F 26.9 °F 16.5 °F 45% 30.30 in 10.0 mi NW 15.0 mph 23.0 mph N/A   Clear
8:15 AM 37.9 °F 28.2 °F 16.9 °F 43% 30.30 in 10.0 mi NW 18.4 mph 27.6 mph N/A   Clear
8:35 AM 38.8 °F 29.1 °F 16.7 °F 41% 30.30 in 10.0 mi NW 19.6 mph 29.9 mph N/A   Clear
8:55 AM 38.7 °F 30.1 °F 17.6 °F 43% 30.32 in 10.0 mi WNW 15.0 mph 29.9 mph N/A   Clear
9:15 AM 39.7 °F 30.0 °F 17.6 °F 41% 30.32 in 10.0 mi NW 20.7 mph 28.8 mph N/A   Clear
9:35 AM 39.7 °F 30.0 °F 18.7 °F 43% 30.33 in 10.0 mi NW 20.7 mph 34.5 mph N/A   Clear
9:55 AM 41.0 °F 31.6 °F 18.9 °F 41% 30.34 in 10.0 mi NW 20.7 mph 28.8 mph N/A   Clear
10:15 AM 42.8 °F 32.5 °F 18.3 °F 37% 30.33 in 10.0 mi NW 28.8 mph 33.4 mph N/A   Clear
10:35 AM 43.3 °F 34.5 °F 19.8 °F 39% 30.34 in 10.0 mi NW 21.9 mph 28.8 mph N/A   Clear
10:55 AM 44.2 °F 36.7 °F 19.0 °F 37% 30.33 in 10.0 mi NW 17.3 mph 26.5 mph N/A   Clear
11:15 AM 44.4 °F 37.2 °F 18.9 °F 36% 30.33 in 10.0 mi NW 16.1 mph 21.9 mph N/A   Clear
11:35 AM 45.0 °F 36.6 °F 17.8 °F 34% 30.31 in 10.0 mi NW 21.9 mph 26.5 mph N/A   Clear
11:55 AM 45.1 °F 39.9 °F 18.9 °F 35% 30.31 in 10.0 mi WNW 10.4 mph - N/A   Clear
12:15 PM 45.3 °F 39.7 °F 17.2 °F 33% 30.30 in 10.0 mi WNW 11.5 mph 18.4 mph N/A   Clear
12:35 PM 45.7 °F 38.6 °F 17.2 °F 32% 30.30 in 10.0 mi NNW 17.3 mph 33.4 mph N/A   Clear
12:55 PM 45.7 °F 39.1 °F 17.6 °F 33% 30.28 in 10.0 mi WNW 15.0 mph 29.9 mph N/A   Clear
1:15 PM 46.2 °F 39.3 °F 16.2 °F 30% 30.28 in 10.0 mi NW 17.3 mph 28.8 mph N/A   Clear
1:35 PM 45.5 °F 38.3 °F 16.7 °F 32% 30.28 in 10.0 mi NW 17.3 mph 28.8 mph N/A   Clear
1:55 PM 45.9 °F 39.1 °F 14.7 °F 29% 30.28 in 10.0 mi WNW 16.1 mph 28.8 mph N/A   Clear
2:15 PM 46.0 °F 38.3 °F 14.0 °F 28% 30.28 in 10.0 mi NNW 20.7 mph 31.1 mph N/A   Clear
2:35 PM 45.5 °F 38.1 °F 14.2 °F 28% 30.29 in 10.0 mi NW 18.4 mph 31.1 mph N/A   Clear
2:55 PM 45.5 °F 37.6 °F 14.4 °F 29% 30.28 in 10.0 mi NW 20.7 mph 28.8 mph N/A   Clear
3:15 PM 44.6 °F 36.4 °F 14.5 °F 30% 30.28 in 10.0 mi NW 20.7 mph 31.1 mph N/A   Clear
3:35 PM 44.6 °F 38.4 °F 13.8 °F 29% 30.30 in 10.0 mi NW 12.7 mph 25.3 mph N/A   Clear
3:55 PM 44.6 °F 38.4 °F 11.8 °F 27% 30.30 in 10.0 mi NW 12.7 mph 26.5 mph N/A   Clear
4:15 PM 42.4 °F 38.8 °F 10.9 °F 28% 30.30 in 10.0 mi NNW 5.8 mph - N/A   Clear
4:35 PM 41.9 °F 35.9 °F 11.1 °F 28% 30.31 in 10.0 mi NNW 10.4 mph 24.2 mph N/A   Clear
4:55 PM 42.6 °F 35.2 °F 10.0 °F 26% 30.31 in 10.0 mi NNW 15.0 mph 21.9 mph N/A   Clear
5:15 PM 40.6 °F 32.3 °F 10.0 °F 29% 30.32 in 10.0 mi NW 16.1 mph 21.9 mph N/A   Clear
5:35 PM 39.7 °F 32.7 °F 9.7 °F 29% 30.33 in 10.0 mi NW 11.5 mph - N/A   Clear
5:55 PM 39.0 °F 31.4 °F 10.0 °F 30% 30.33 in 10.0 mi NW 12.7 mph - N/A   Clear
6:15 PM 37.4 °F 26.9 °F 10.8 °F 33% 30.32 in 10.0 mi NNW 20.7 mph - N/A   Clear
6:35 PM 37.6 °F 31.0 °F 8.8 °F 30% 30.33 in 10.0 mi NW 9.2 mph 19.6 mph N/A   Clear
6:55 PM 38.7 °F 32.4 °F 8.1 °F 28% 30.33 in 10.0 mi WNW 9.2 mph 19.6 mph N/A   Clear
7:15 PM 37.9 °F 29.6 °F 9.0 °F 30% 30.36 in 10.0 mi NNW 13.8 mph 29.9 mph N/A   Clear
7:35 PM 37.6 °F 28.8 °F 9.3 °F 31% 30.35 in 10.0 mi NNW 15.0 mph 21.9 mph N/A   Clear
7:55 PM 37.2 °F 29.6 °F 8.8 °F 31% 30.36 in 10.0 mi NW 11.5 mph 24.2 mph N/A   Clear
8:15 PM 36.5 °F 26.7 °F 10.2 °F 34% 30.36 in 10.0 mi NNW 17.3 mph 29.9 mph N/A   Clear
8:35 PM 36.3 °F 27.1 °F 10.2 °F 34% 30.36 in 10.0 mi NW 15.0 mph 20.7 mph N/A   Clear
8:55 PM 34.9 °F 24.9 °F 11.1 °F 37% 30.36 in 10.0 mi NNW 16.1 mph 23.0 mph N/A   Clear
9:15 PM 33.4 °F 23.1 °F 11.1 °F 40% 30.38 in 10.0 mi NW 16.1 mph 25.3 mph N/A   Clear
9:35 PM 32.9 °F 22.8 °F 11.1 °F 40% 30.38 in 10.0 mi NW 15.0 mph - N/A   Clear
9:55 PM 28.4 °F 21.2 °F 10.6 °F 47% 30.38 in 10.0 mi WNW 6.9 mph - N/A   Clear
10:15 PM 26.8 °F 18.5 °F 9.3 °F 48% 30.38 in 10.0 mi WSW 8.1 mph - N/A   Clear
10:55 PM 23.5 °F 17.6 °F 9.1 °F 54% 30.39 in 10.0 mi SSW 4.6 mph - N/A   Clear
11:15 PM 22.1 °F - 8.8 °F 57% 30.39 in 10.0 mi Calm Calm - N/A   Clear
11:35 PM 21.7 °F 17.0 °F 9.0 °F 58% 30.40 in 10.0 mi SSE 3.5 mph - N/A   Clear
11:55 PM 20.5 °F - 8.6 °F 60% 30.40 in 10.0 mi Calm Calm - N/A   Clear